Regional Weather Roundup
Issued by NWS

Home | Current Version | Previous Version | Text Only | Print | Product List | Glossary On
Versions: 1 2 3 4 5 6 7 8 9 10 11 12 13 14 15 16 17 18 19 20 21 22 23 24 25 26 27 28 29 30 31 32 33 34 35 36 37 38 39 40 41 42 43 44 45 46 47 48 49 50
000
ASUS43 KLMK 250902
RWRKY
KENTUCKY REGIONAL WEATHER ROUNDUP
NATIONAL WEATHER SERVICE LOUISVILLE KY
500 AM EDT TUE JUL 25 2017

NOTE "FAIR" INDICATES FEW OR NO CLOUDS BELOW 12,000 FEET
WITH NO SIGNIFICANT WEATHER AND/OR OBSTRUCTIONS TO VISIBILITY.

KYZ001>023-026-027-061>063-070>075-251000-
WESTERN AND SOUTH CENTRAL KENTUCKY

CITY           SKY/WX    TMP DP  RH WIND       PRES   REMARKS
PADUCAH        MOCLDY    76  73  91 NE3       30.02R
HENDERSON      CLEAR     74  69  85 NE7       30.05S
OWENSBORO      CLEAR     74  68  81 E8        30.05R
HOPKINSVILLE   CLEAR     75  74  95 CALM      30.03S
BOWLING GREEN  CLEAR     75  72  90 CALM      30.05R
GLASGOW        NOT AVBL
$$

KYZ024-025-028>034-038-045-046-053-251000-
NORTH CENTRAL KENTUCKY

CITY           SKY/WX    TMP DP  RH WIND       PRES   REMARKS
LOUISVILLE/SDF PTCLDY    72  63  73 E8        30.09R
LOUISVILLE/LOU PTCLDY    71  64  78 NE12      30.10R
FORT KNOX      CLEAR     70  65  85 NE7       30.07R
$$

KYZ035>037-039>044-047>052-055>060-089>105-251000-
NORTHEAST KENTUCKY

CITY           SKY/WX    TMP DP  RH WIND       PRES   REMARKS
LEXINGTON      PTCLDY    67  61  81 NE10      30.11R
COVINGTON      PTCLDY    65  61  87 E10       30.13R
FRANKFORT      PTCLDY    68  60  75 NE8       30.10R
$$

KYZ054-064>069-076>088-106>120-251000-
SOUTHEAST KENTUCKY

CITY           SKY/WX    TMP DP  RH WIND       PRES   REMARKS
JACKSON        CLEAR     66  64  93 CALM      30.11R
LONDON         CLEAR     69  67  93 CALM      30.09R
SOMERSET       PTCLDY    68  68 100 CALM      30.09R FOG
MIDDLESBORO    PTCLDY    67  67 100 CALM      30.09S
MONTICELLO     MOSUNNY   71  70  96 NE9       30.09R
$$




USA.gov is the U.S. government's official web portal to all federal, state and local government web resources and services.